TimeCST,TemperatureF,Dew PointF,Humidity,Sea Level PressureIn,VisibilityMPH,Wind Direction,Wind SpeedMPH,Gust SpeedMPH,PrecipitationIn,Events,Conditions,WindDirDegrees,DateUTC
12:15 AM,19.9,16.3,86,30.16,10.0,SE,3.5,-,N/A,,Overcast,140,2013-03-03 06:15:00
12:35 AM,20.7,17.2,87,30.16,10.0,South,3.5,-,N/A,,Overcast,170,2013-03-03 06:35:00
12:55 AM,21.0,17.2,85,30.15,10.0,SSE,5.8,-,N/A,,Overcast,160,2013-03-03 06:55:00
1:35 AM,21.0,17.1,85,30.13,10.0,South,6.9,-,N/A,,Overcast,180,2013-03-03 07:35:00
1:55 AM,20.8,16.7,84,30.13,10.0,SE,4.6,-,N/A,,Overcast,140,2013-03-03 07:55:00
2:15 AM,20.7,16.7,85,30.13,10.0,ESE,5.8,-,N/A,,Overcast,120,2013-03-03 08:15:00
2:55 AM,18.7,15.3,87,30.12,10.0,East,5.8,-,N/A,,Overcast,100,2013-03-03 08:55:00
3:15 AM,18.5,15.3,87,30.11,10.0,SE,4.6,-,N/A,,Overcast,130,2013-03-03 09:15:00
3:35 AM,19.2,15.6,86,30.11,10.0,SE,4.6,-,N/A,,Overcast,140,2013-03-03 09:35:00
3:55 AM,19.9,15.8,84,30.10,10.0,SSE,5.8,-,N/A,,Overcast,160,2013-03-03 09:55:00
4:15 AM,20.1,16.0,84,30.10,10.0,SSE,4.6,-,N/A,,Overcast,150,2013-03-03 10:15:00
4:35 AM,20.3,16.0,83,30.09,10.0,SSE,5.8,-,N/A,,Overcast,150,2013-03-03 10:35:00
4:55 AM,20.3,15.8,83,30.09,10.0,SE,4.6,-,N/A,,Overcast,140,2013-03-03 10:55:00
5:15 AM,20.3,16.3,85,30.09,10.0,SE,4.6,-,N/A,,Overcast,140,2013-03-03 11:15:00
6:15 AM,20.3,15.8,83,30.09,10.0,SE,4.6,-,N/A,,Overcast,130,2013-03-03 12:15:00
6:55 AM,19.9,15.6,83,30.08,10.0,ESE,8.1,-,N/A,,Overcast,110,2013-03-03 12:55:00
7:15 AM,20.1,15.6,83,30.08,10.0,ESE,8.1,-,N/A,,Overcast,110,2013-03-03 13:15:00
7:35 AM,18.5,14.2,83,30.09,7.0,ESE,6.9,-,N/A,,Scattered Clouds,120,2013-03-03 13:35:00
7:55 AM,18.5,14.0,83,30.09,7.0,East,9.2,-,N/A,,Clear,100,2013-03-03 13:55:00
8:15 AM,19.6,14.4,80,30.09,10.0,ESE,9.2,-,N/A,,Clear,110,2013-03-03 14:15:00
8:35 AM,20.7,14.7,78,30.08,10.0,ESE,9.2,-,N/A,,Clear,110,2013-03-03 14:35:00
8:55 AM,20.8,14.7,77,30.08,7.0,East,11.5,-,N/A,,Clear,100,2013-03-03 14:55:00
9:15 AM,20.8,14.5,77,30.08,10.0,East,11.5,-,N/A,,Clear,100,2013-03-03 15:15:00
9:35 AM,22.1,15.1,74,30.07,10.0,ESE,11.5,-,N/A,,Scattered Clouds,120,2013-03-03 15:35:00
9:55 AM,23.0,15.4,73,30.07,10.0,SE,10.4,-,N/A,,Overcast,130,2013-03-03 15:55:00
10:15 AM,23.2,16.0,74,30.07,10.0,ESE,13.8,-,N/A,,Overcast,120,2013-03-03 16:15:00
10:35 AM,24.4,16.7,72,30.07,10.0,SE,12.7,16.1,N/A,,Overcast,130,2013-03-03 16:35:00
10:55 AM,25.0,16.7,71,30.07,10.0,SE,12.7,-,N/A,,Overcast,130,2013-03-03 16:55:00
11:15 AM,25.2,16.7,70,30.07,10.0,SE,12.7,-,N/A,,Overcast,140,2013-03-03 17:15:00
11:35 AM,26.1,18.0,71,30.06,10.0,SE,12.7,-,N/A,,Overcast,130,2013-03-03 17:35:00
11:55 AM,26.6,18.0,70,30.05,10.0,ESE,11.5,-,N/A,,Overcast,120,2013-03-03 17:55:00
12:15 PM,27.9,18.7,68,30.04,10.0,ESE,11.5,-,N/A,,Overcast,120,2013-03-03 18:15:00
12:35 PM,28.4,18.7,67,30.04,10.0,ESE,12.7,-,N/A,,Mostly Cloudy,120,2013-03-03 18:35:00
12:55 PM,28.4,18.9,67,30.03,10.0,ESE,12.7,-,N/A,,Scattered Clouds,120,2013-03-03 18:55:00
1:15 PM,28.8,18.9,67,30.02,10.0,SE,11.5,-,N/A,,Scattered Clouds,130,2013-03-03 19:15:00
1:35 PM,28.9,19.4,68,30.01,10.0,ESE,17.3,-,N/A,,Clear,120,2013-03-03 19:35:00
1:55 PM,28.9,19.2,67,29.99,10.0,ESE,16.1,-,N/A,,Clear,120,2013-03-03 19:55:00
2:35 PM,30.0,20.8,69,29.98,10.0,ESE,13.8,-,N/A,,Clear,110,2013-03-03 20:35:00
2:55 PM,29.3,21.4,72,29.97,10.0,ESE,13.8,-,N/A,,Clear,110,2013-03-03 20:55:00
3:35 PM,28.6,21.0,73,29.97,10.0,ESE,16.1,-,N/A,,Clear,110,2013-03-03 21:35:00
4:15 PM,27.5,20.8,76,29.97,10.0,East,13.8,-,N/A,,Clear,100,2013-03-03 22:15:00
4:35 PM,27.1,21.0,78,29.96,10.0,ESE,13.8,-,N/A,,Clear,110,2013-03-03 22:35:00
4:55 PM,26.6,20.7,78,29.96,10.0,East,13.8,-,N/A,,Clear,100,2013-03-03 22:55:00
5:15 PM,26.2,20.1,78,29.95,10.0,East,15.0,-,N/A,,Clear,100,2013-03-03 23:15:00
5:35 PM,25.7,19.4,77,29.95,10.0,East,13.8,-,N/A,,Clear,100,2013-03-03 23:35:00
5:55 PM,25.7,18.7,75,29.95,10.0,ESE,16.1,-,N/A,,Mostly Cloudy,110,2013-03-03 23:55:00
6:15 PM,25.7,18.3,74,29.94,10.0,ESE,15.0,-,N/A,,Overcast,110,2013-03-04 00:15:00
6:35 PM,25.7,17.4,71,29.94,10.0,ESE,15.0,-,N/A,,Overcast,110,2013-03-04 00:35:00
6:55 PM,25.7,16.9,69,29.94,10.0,ESE,16.1,-,N/A,,Overcast,110,2013-03-04 00:55:00
7:15 PM,25.7,16.7,69,29.95,10.0,ESE,13.8,-,N/A,,Overcast,110,2013-03-04 01:15:00
7:35 PM,25.7,16.9,69,29.95,10.0,ESE,13.8,-,N/A,,Mostly Cloudy,110,2013-03-04 01:35:00
7:55 PM,25.7,17.6,71,29.95,10.0,ESE,16.1,-,N/A,,Overcast,110,2013-03-04 01:55:00
8:15 PM,25.7,17.6,71,29.95,10.0,ESE,16.1,-,N/A,,Overcast,120,2013-03-04 02:15:00
8:35 PM,26.1,16.5,67,29.95,10.0,ESE,18.4,-,N/A,,Overcast,110,2013-03-04 02:35:00
8:55 PM,26.1,16.3,67,29.96,10.0,ESE,16.1,-,N/A,,Overcast,120,2013-03-04 02:55:00
9:15 PM,25.7,16.9,69,29.96,10.0,ESE,16.1,-,N/A,,Overcast,110,2013-03-04 03:15:00
9:35 PM,25.7,17.4,71,29.95,10.0,ESE,16.1,-,N/A,,Overcast,110,2013-03-04 03:35:00
9:55 PM,25.7,17.6,71,29.94,10.0,ESE,16.1,-,N/A,,Overcast,110,2013-03-04 03:55:00
10:15 PM,25.7,17.6,71,29.94,10.0,ESE,17.3,-,N/A,,Overcast,110,2013-03-04 04:15:00
10:35 PM,25.5,17.8,72,29.95,10.0,ESE,13.8,-,N/A,,Overcast,120,2013-03-04 04:35:00
10:55 PM,25.7,17.4,71,29.96,7.0,SE,11.5,-,N/A,Snow,Light Snow,130,2013-03-04 04:55:00
11:15 PM,24.8,19.2,79,29.96,2.5,ESE,15.0,-,N/A,Snow,Light Snow,120,2013-03-04 05:15:00
11:35 PM,24.3,19.9,84,29.96,2.0,ESE,15.0,-,N/A,Snow,Light Snow,120,2013-03-04 05:35:00
11:55 PM,23.9,20.3,86,29.95,1.5,ESE,16.1,-,N/A,Snow,Light Snow,110,2013-03-04 05:55:00